Time+07,TemperatureF,Dew PointF,Humidity,Sea Level PressureIn,VisibilityMPH,Wind Direction,Wind SpeedMPH,Gust SpeedMPH,PrecipitationIn,Events,Conditions,WindDirDegrees,DateUTC
12:00 AM,84.2,77.0,79,29.74,4.3,WNW,3.5,-,N/A,,Mostly Cloudy,300,2013-05-21 17:00:00
12:30 AM,82.4,75.2,79,29.74,4.3,WNW,3.5,-,N/A,,Mostly Cloudy,290,2013-05-21 17:30:00
1:00 AM,82.4,75.2,79,29.74,4.3,WNW,3.5,-,N/A,,Mostly Cloudy,290,2013-05-21 18:00:00
1:30 AM,82.4,75.2,79,29.71,4.3,WNW,3.5,-,N/A,,Mostly Cloudy,290,2013-05-21 18:30:00
2:00 AM,82.4,75.2,79,29.71,4.3,Calm,Calm,-,N/A,,Mostly Cloudy,0,2013-05-21 19:00:00
2:30 AM,82.4,75.2,79,29.71,4.3,Calm,Calm,-,N/A,,Mostly Cloudy,0,2013-05-21 19:30:00
3:00 AM,82.4,75.2,79,29.71,4.3,Calm,Calm,-,N/A,,Mostly Cloudy,0,2013-05-21 20:00:00
3:30 AM,82.4,75.2,79,29.68,4.3,Calm,Calm,-,N/A,,Mostly Cloudy,0,2013-05-21 20:30:00
5:00 AM,80.6,75.2,84,29.71,4.3,Calm,Calm,-,N/A,,Mostly Cloudy,0,2013-05-21 22:00:00
5:30 AM,80.6,75.2,84,29.71,4.3,Calm,Calm,-,N/A,,Mostly Cloudy,0,2013-05-21 22:30:00
6:00 AM,80.6,75.2,84,29.71,4.3,Calm,Calm,-,N/A,,Mostly Cloudy,0,2013-05-21 23:00:00
6:30 AM,80.6,75.2,84,29.71,4.3,Calm,Calm,-,N/A,,Mostly Cloudy,0,2013-05-21 23:30:00
7:00 AM,82.4,77.0,84,29.74,4.3,Calm,Calm,-,N/A,,Mostly Cloudy,0,2013-05-22 00:00:00
7:30 AM,84.2,77.0,79,29.74,4.3,WSW,2.3,-,N/A,,Mostly Cloudy,240,2013-05-22 00:30:00
8:00 AM,86.0,77.0,74,29.74,4.3,SSW,4.6,-,N/A,,Mostly Cloudy,200,2013-05-22 01:00:00
8:30 AM,86.0,75.2,70,29.77,4.3,SW,2.3,-,N/A,,Mostly Cloudy,220,2013-05-22 01:30:00
9:00 AM,87.8,77.0,70,29.77,5.0,SSW,9.2,-,N/A,,Mostly Cloudy,210,2013-05-22 02:00:00
9:30 AM,87.8,75.2,66,29.77,5.0,SW,9.2,-,N/A,,Mostly Cloudy,220,2013-05-22 02:30:00
10:00 AM,89.6,75.2,62,29.77,5.6,SSW,9.2,-,N/A,,Mostly Cloudy,210,2013-05-22 03:00:00
10:30 AM,89.6,77.0,66,29.77,5.6,SW,9.2,-,N/A,,Mostly Cloudy,220,2013-05-22 03:30:00
11:00 AM,89.6,75.2,62,29.77,5.6,South,6.9,-,N/A,,Mostly Cloudy,190,2013-05-22 04:00:00
11:30 AM,89.6,77.0,66,29.77,5.6,SSW,9.2,-,N/A,,Mostly Cloudy,200,2013-05-22 04:30:00
12:00 PM,91.4,77.0,63,29.74,5.6,SSW,9.2,-,N/A,,Mostly Cloudy,200,2013-05-22 05:00:00
12:30 PM,91.4,75.2,59,29.74,6.2,SSW,11.5,-,N/A,,Mostly Cloudy,210,2013-05-22 05:30:00
1:00 PM,91.4,77.0,63,29.71,6.2,SW,11.5,-,N/A,,Mostly Cloudy,220,2013-05-22 06:00:00
1:30 PM,91.4,75.2,59,29.71,6.2,SSW,13.8,-,N/A,,Mostly Cloudy,200,2013-05-22 06:30:00
2:00 PM,91.4,75.2,59,29.71,6.2,SSW,13.8,-,N/A,,Mostly Cloudy,200,2013-05-22 07:00:00
2:30 PM,93.2,75.2,56,29.68,6.2,SW,13.8,-,N/A,,Mostly Cloudy,230,2013-05-22 07:30:00
3:00 PM,91.4,75.2,59,29.68,6.2,SW,13.8,-,N/A,,Mostly Cloudy,230,2013-05-22 08:00:00
3:30 PM,91.4,75.2,59,29.65,6.2,WSW,9.2,-,N/A,,Mostly Cloudy,250,2013-05-22 08:30:00
4:00 PM,91.4,75.2,59,29.65,6.2,SW,9.2,-,N/A,,Mostly Cloudy,230,2013-05-22 09:00:00
4:30 PM,89.6,75.2,62,29.65,6.2,WSW,9.2,-,N/A,,Mostly Cloudy,240,2013-05-22 09:30:00
5:00 PM,87.8,75.2,66,29.65,6.2,SW,6.9,-,N/A,,Mostly Cloudy,230,2013-05-22 10:00:00
5:30 PM,87.8,77.0,70,29.65,6.2,WSW,4.6,-,N/A,,Mostly Cloudy,240,2013-05-22 10:30:00
6:00 PM,87.8,77.0,70,29.68,6.2,SW,4.6,-,N/A,,Mostly Cloudy,220,2013-05-22 11:00:00
6:30 PM,86.0,77.0,74,29.68,6.2,SW,3.5,-,N/A,,Mostly Cloudy,220,2013-05-22 11:30:00
7:00 PM,86.0,77.0,74,29.71,6.2,SW,4.6,-,N/A,,Mostly Cloudy,230,2013-05-22 12:00:00
7:30 PM,86.0,77.0,74,29.71,6.2,SW,4.6,-,N/A,,Mostly Cloudy,220,2013-05-22 12:30:00
8:00 PM,86.0,77.0,74,29.74,6.2,SSW,6.9,-,N/A,,Mostly Cloudy,210,2013-05-22 13:00:00
8:30 PM,86.0,78.8,79,29.74,6.2,WSW,6.9,-,N/A,,Mostly Cloudy,250,2013-05-22 13:30:00
9:00 PM,86.0,80.6,84,29.74,5.6,SW,6.9,-,N/A,,Mostly Cloudy,230,2013-05-22 14:00:00
9:30 PM,86.0,78.8,79,29.74,5.6,SW,4.6,-,N/A,,Mostly Cloudy,230,2013-05-22 14:30:00
10:00 PM,86.0,78.8,79,29.74,5.0,SW,6.9,-,N/A,,Mostly Cloudy,220,2013-05-22 15:00:00
10:30 PM,86.0,78.8,79,29.74,5.0,SSW,5.8,-,N/A,,Mostly Cloudy,210,2013-05-22 15:30:00
11:00 PM,87.8,78.8,75,29.77,5.0,SSW,4.6,-,N/A,,Mostly Cloudy,210,2013-05-22 16:00:00
11:30 PM,84.2,75.2,74,29.74,5.0,North,6.9,-,N/A,,Mostly Cloudy,350,2013-05-22 16:30:00